Flag for U.S.A. Weather past 2 weeks in Jacksonville, Florida, U.S.A.

88 °F

Broken clouds.

Feels Like: 91 °F
Forecast: 72 / 85 °F
Wind: 9 mph from East

Location: Jacksonville Naval Air Station

Current Time: Oct 9, 2015 at 2:18:46 PM

Latest Report: Oct 9, 2015 at 1:53 PM

Visibility: 10 mi

Pressure: 30.04 "Hg

Humidity: 50%

Dew point: 67 °F

Location of JacksonvilleLocation

Historic Weather in Jacksonville — Graph


Jacksonville temperature yesterday

Maximum temperature yesterday: 89 °F (at 1:53 PM)
Minimum temperature yesterday: 69 °F (at 5:53 AM)
Average temperature yesterday: 78 °F

Past Weeks' High & Low Weather Summary

High93 °F (Sep 30, 3:53 PM)90% (Sep 30, 5:53 AM)30.11 "Hg (Sep 30, 5:53 AM)
Low67 °F (Oct 3, 7:53 AM)44% (Oct 7, 4:53 PM)29.55 "Hg (Oct 3, 2:53 PM)
Average78 °F73%29.84 "Hg
* Reported Sep 24 12:53 PM — Oct 9 12:53 PM, Jacksonville, Weather by CustomWeather, © 2015

Note: Actual official high and low records may vary slightly from our data, if they occured in-between our weather recording intervals... More about our weather records


Jacksonville weather history for previous 24 hours

Time TempWeatherWind HumidityBarometerVisibility
12:53 PM
Fri, Oct 9
89 °FBroken clouds.12 mph46%30.07 "Hg10 mi
11:53 AM87 °FBroken clouds.5 mph51%30.09 "Hg10 mi
10:53 AM85 °FBroken clouds.7 mph61%30.10 "Hg10 mi
9:53 AM81 °FBroken clouds.7 mph72%30.11 "Hg10 mi
8:53 AM79 °FBroken clouds.5 mph77%30.10 "Hg10 mi
7:53 AM75 °FPassing clouds.No wind85%30.07 "Hg10 mi
6:53 AM76 °FPassing clouds.5 mph85%30.06 "Hg10 mi
5:53 AM77 °FPassing clouds.3 mph79%30.05 "Hg10 mi
4:53 AM77 °FPassing clouds.3 mph79%30.04 "Hg10 mi
4:02 AM78 °FPassing clouds.No wind76%30.05 "Hg10 mi
2:53 AM78 °FClear.3 mph79%30.03 "Hg10 mi
1:53 AM79 °FClear.No wind79%30.05 "Hg10 mi
12:53 AM79 °FPassing clouds.5 mph79%30.06 "Hg10 mi
11:53 PM
Thu, Oct 8
80 °FClear.3 mph76%30.08 "Hg10 mi
10:53 PM80 °FPassing clouds.3 mph74%30.08 "Hg10 mi
9:53 PM80 °FPartly cloudy.6 mph74%30.06 "Hg10 mi
8:53 PM81 °FPassing clouds.6 mph72%30.06 "Hg10 mi
7:53 PM82 °FPartly sunny.9 mph70%30.04 "Hg10 mi
6:53 PM83 °FBroken clouds.7 mph59%30.03 "Hg10 mi
5:53 PM85 °FBroken clouds.12 mph55%30.02 "Hg10 mi
4:53 PM86 °FBroken clouds.14 mph55%30.02 "Hg10 mi
3:53 PM87 °FPartly sunny.12 mph55%30.02 "Hg10 mi
2:53 PM88 °FBroken clouds.12 mph50%30.02 "Hg10 mi
Weather by CustomWeather, © 2015

See weather overviewHow to use our weather pages